Погода Сурское

Погода Сурское : погода сейчас, прогноз погоды и архив. Всё, что Вы хотите узнать о погоде Сурское!

Поиск расширенной информации на нашем сайте:

Другие новости

Новости СМИ2

Главная страница сайта

Новости сайта

02.10.2013

Напоминаем, что на нашем новом сайте вы можете получить высокодетализированные прогнозы погоды по пунктам России, СНГ и мира (включающие важные для авиации метеовеличины, такие как направление и скорость ветра, видимость, явления погоды, количество и форма облачности, нижняя и верхняя граница облачности), а также ознакомиться с разнообразными материалами по авиационной метеорологии и подборкой полезных ссылок на эту тему.

Сайт Метеоцентр.Азия посвящён разработке технологий оптимизации авиаметеорологического обслуживания, включая проектирование и перспективное создание нескольких автоматизированных авиаметеорологических систем:
- система выпуска высокодетальных прогностических карт явлений погоды для нижнего воздушного пространства по России и ближнему зарубежью;
- система верификации прогнозов TAF (выпускаемых синоптиками официальных АМСГ РФ и ближнего зарубежья) и AUTOTAF (выпускаемых сайтом Метеоцентр.Азия) - выявление ошибок, онлайн-сопоставление с фактической погодой METAR, автоматическое внесение коррективов в прогнозы при резком отклонении фактической погоды от прогноза, подсчёт оправдываемости прогнозов по элементам и в целом;
- система обработки, анализа и отображения авиаметеорологической информации для применения провайдерами метеорологической информации.

Рекомендуем: Первые признаки беременности.

Погода Сурское - сегодня

Время (UTC), дата Ветер
(°,м/с) 
Видим.   Явления Облачность Т
(°С)
Тd
(°С)
f(%) Тe
(°С)
Pmin
(гПа)
dP
(гПа)
Po
(мм)
O2
(г/м3)
Тmin Tmax R s Состояние
почвы
00 21.01.17 270 (З) 20000 м    ясно 
-8.2 -12.7 70 -13  1007.9  0.3  746  311           
03 21.01.17 300 (СЗ) 20000 м    ясно 
-12.1 -15.4 76 -12  1007.8  -0.3  746  316  -12.1      30  равномерный
сухой снег
100% 
06 21.01.17 210 (ЮЗ) 20000 м    4/0 средняя 
[Ac trans]
-13.6 -15.2 88 -14  1006.7  -1.2  745  317  -16.1         
09 21.01.17 240 (ЮЗ) 20000 м    8/0 верхняя 
[Cc]
-8.2 -12 74 -11  1004.2  -2.2  744  310           
12 21.01.17 270 (З) 4000 м  слаб. снег  10/5 600 м средняя 
[St|As op]
-7 -9.6 82 -10  1003.4  -0.7  743  308           
15 21.01.17 280 (З) 20000 м  {снег}  8/8 660 м 
[Sc]
-8.6 -10.7 85 -11  1004.6  1.1  744  310    -6.6  0.0     
18 21.01.17 280 (З) 20000 м  в посл. час снег  10/5 600 м средняя 
[Sc|Ac As]
-7.1 -10 80 -10  1005.3  0.8  744  309           
21 21.01.17 260 (З) 6000 м  слаб. снег  10/0 средняя 
[Ac As]
-6.9 -9.6 81 -8  1006.4  1.1  745  309           
00 22.01.17 280 (З) 20000 м  {снег}  10/8 600 м средняя 
[Sc|Ac As]
-7 -10.3 77 -10  1007.1  0.7  746  309           
03 22.01.17 280 (З) 4{10}  20000 м  позёмок  10/5 600 м средняя 
[Sc|Ac As]
-7.7 -10.9 78 -11  1007.5  0.4  746  310  -8.5    0.0  29  равномерный
сухой снег
100% 
06 22.01.17 290 (З) 4000 м  слаб. снег  10/5 300 м средняя 
[Frnb|As op]
-8 -10.5 82 -12  1008.6  747  311           
09 22.01.17 280 (З) 4{11}  4000 м  слаб. снег  10/0 средняя 
[As op]
-7.9 -11.1 78 -12  1009.2  0.6  747  311           
12 22.01.17 280 (З) 20000 м  {снег}  4/0 средняя 
[Ac trans]
-7.7 -12.4 69 -10  1008.5  -0.6  747  311           
15 22.01.17 200 (Ю) 20000 м    10/0 средняя 
[Ac As]
-9.1 -12.2 78 -9  1008.3  -0.3  747  312    -7.5  0.0     
18 22.01.17 260 (З) 6000 м  слаб. снег  10/0 средняя 
[As op]
-8.1 -10 86 -10  1008  -0.3  746  311           
21 22.01.17 290 (З) 5000 м  слаб. снег  10/6 300 м средняя 
[Frnb|As op]
-7.9 -9.8 86 -12  1008.8  0.8  747  311           
00 23.01.17 290 (З) 20000 м  {снег}  9/9 600 м 
[Sc]
-7.3 -11 75 -11  1010.7  1.9  748  311           
03 23.01.17 290 (З) 20000 м    10/10 700 м 
[Sc]
-6.7 -10 77 -10  1012.3  1.5  750  311  -9.3    0.6  30  равномерный
сухой снег
100% 
06 23.01.17 270 (З) 20000 м  в посл. час снег  9/9 660 м 
[Sc]
-7 -10 79 -8  1013.7  1.4  751  311           
09 23.01.17 280 (З) 20000 м  {снег}  6/6 600 м 
[Sc]
-5.8 -10.4 70 -8  1014.1  0.4  751  310           
12 23.01.17 230 (ЮЗ) 20000 м  {снег}  8/0 верхняя 
[Ci fib]
-6.1 -10.7 70 -8  1013.8  -0.3  751  310           
15 23.01.17 280 (З) 20000 м    8/8 660 м 
[Sc]
-9.4 -11.6 84 -9  1013  -0.9  750  314    -5  0.0     
18 23.01.17 тихо ()   6000 м  слаб. снег  10/0 средняя 
[Ac As]
-8.4 -10 88 -8  1010.8  -2.2  748  312           
21 23.01.17 240 (ЮЗ) 4800 м  слаб. снег  10/8 300 м средняя 
[St|As op]
-3.8 -5 91 -5  1008.2  -2.3  747  306           
00 24.01.17 230 (ЮЗ) 20000 м  {снег}  10/4 300 м средняя 
[St|Ac As]
-1.7 -2.7 93 -3  1005.5  -2.5  745  302           
Время (UTC), дата Ветер
(°,м/с) 
Видим.   Явления Облачность Т
(°С)
Тd
(°С)
f(%) Тe
(°С)
Pmin
(гПа)
dP
(гПа)
Po
(мм)
O2
(г/м3)
Тmin Tmax R s Состояние
почвы

Для получения пояснительной информации подведите курсор к названию столбца.

ПОГОДА Сурское - архив

Всё, что Вы хотите узнать о погоде Сурское - удобно и подробно!

Выберите нужную дату (начиная с 1 января 2015* года) и нажмите кнопку "Найти".
Будут отображены архивные сводки погоды по пункту Сурское, начиная с указанной даты.


Отображать данные в формате CSV (для использования в таблицах Excel)


Внимание! Наш архив погоды предназначен исключительно для личного некоммерческого использования в познавательных целях. Если Вам необходимы официальные справки о состоянии погоды (для производственных, юридических, коммерческих и т.п. целей), обращайтесь в органы Росгидромета.

*Примечание: данная дата относится к архиву по метеостанциям СССР (Россия, СНГ, Балтия).
Архив по метеостанциям Зарубежной Европы и Азии (кроме Китая) хранится 10 дней, по другим регионам земного шара (Китай, Африка, Америка, Австралия, Океания) - 1 день.

Сурское - район местоположения метеостанции


Название, широта, долгота, высота метеостанции:
Сурское 54.5°ш. 46.7°д. 100 м над ур. моря [Российская Федерация]

Дополнительная информация

В oтличие oт бoльшинства пoгoдных сайтoв мы публикуем пoдрoбную метеoинфoрмацию в детальнoм прoфессиoнальнoм фoрмате.

Характеристики температуры и влажнoсти вoздуха измеряются на высoте 2 м в тени вдали oт зданий и деревьев.
Скoрoсть ветра измеряется на высoте 10 м (на урoвне рoста челoвека скoрoсть ветра ниже в 1.5-2 раза). Если метеoстанция нахoдится в гoрoде или в лесу, тo скoрoсть ветра занижена на 2-4 м/с пo сравнению с oткрытым местoм. Скoрoсть ветра над акватoриями крупных рек и oзёр, а также на вершинах хoлмoв на 2-5 м/с выше, чем в oбычных услoвиях.
Атмoсфернoе давление в разных тoчках местнoсти мoжет значительнo oтличаться oт давления на метеoстанции, в зависимoсти oт услoвий рельефа (при пoдъёме на 10 м давление пoнижается примернo на 1 мм рт.ст.).